Tracking 23731 objects as of 26-Sep-2021
HD Live streaming from Space Station
objects crossing your sky now

STARLINK-1748

Track STARLINK-1748 now!
10-day predictions
STARLINK-1748 is classified as:


NORAD ID: 46570
Int'l Code: 2020-070AQ
Perigee: 553.4 km
Apogee: 555.4 km
Inclination: 53.1 °
Period: 95.6 minutes
Semi major axis: 6925 km
RCS: Unknown
Launch date: October 6, 2020
Source: United States (US)
Launch site: AIR FORCE EASTERN TEST RANGE (AFETR)
aabbcc
Your satellite tracking list
Your tracking list is empty




NASA's NSSDC Master Catalog

Two Line Element Set (TLE):
1 46570U 20070AQ  21269.27483636 -.00005665  00000-0 -36185-3 0  9990
2 46570  53.0530 253.3825 0001495  68.5836 291.5313 15.06382671 54791
Source of the keplerian elements: AFSPC